Mansfield, OH

4:26 AM EST on February 07, 2016 (GMT -0500)
Mansfield Lahm Regional

Weather History for KMFD - December, 2013

Change the Weather History Date:

Wednesday, December 4, 2013

  Actual Average Record
Temperature  
Mean Temperature 52 °F 33 °F  
Max Temperature 59 °F 40 °F 67 °F (1982)
Min Temperature 44 °F 26 °F 2 °F (1940)
Degree Days  
Heating Degree Days 13 32  
Month to date heating degree days 94 124  
Since 1 July heating degree days 1426 1405  
Cooling Degree Days 0 0  
Month to date cooling degree days 0 0  
Year to date cooling degree days 741 632  
Growing Degree Days 1 (Base 50)    
Moisture  
Dew Point 46 °F    
Average Humidity 82    
Maximum Humidity 92    
Minimum Humidity 72    
Precipitation  
Precipitation 0.00 in 0.11 in - ()
Month to date precipitation 0.01 0.44  
Year to date precipitation 38.84 41.34  
Snow  
Snow 0.00 in 0.20 in - ()
Month to date snowfall T 0.9  
Since 1 July snowfall 1.5 3.6  
Snow Depth 0.00 in    
Sea Level Pressure  
Sea Level Pressure 29.85 in    
Wind  
Wind Speed 11 mph (SSE)    
Max Wind Speed 18 mph    
Max Gust Speed 25 mph    
Visibility 10 miles    
Events      
T = Trace of Precipitation, MM = Missing Value Source: NWS Daily Summary

Daily Weather History Graph

Daily Weather History Graph

Search for Another Location

Airport or City:

Trip Planner

Search our weather history database for the weather conditions in past years. The results will help you decide how hot, cold, wet, or windy it might be!

Date:

Astronomy

Dec. 04, 2013 Rise Set
Actual Time 7:38 AM EST 5:02 PM EST
Civil Twilight 7:07 AM EST 5:33 PM EST
Nautical Twilight 6:33 AM EST 6:07 PM EST
Astronomical Twilight 6:00 AM EST 6:40 PM EST
Moon 9:05 AM EST (12/4) 7:11 PM EST (12/4)
Length of Visible Light 10h 25m
Length of Day
9h 24m
Waxing Crescent, 4% of the Moon is Illuminated
Dec 4
Waxing Crescent
Dec 9
First Quarter
Dec 17
Full
Dec 25
Last Quarter
Jan 1
New

Hourly Weather History & Observations

Time (EST) Temp. Windchill Dew Point Humidity Pressure Visibility Wind Dir Wind Speed Gust Speed Precip Events Conditions
12:52 AM 45.0 °F 40.1 °F 42.1 °F 90% 29.88 in 8.0 mi SSE 9.2 mph - N/A   Overcast
12:59 AM 46.4 °F 42.4 °F 42.8 °F 87% 29.88 in 9.0 mi South 8.1 mph - N/A   Overcast
1:52 AM 46.0 °F 41.9 °F 42.1 °F 86% 29.88 in 9.0 mi SSE 8.1 mph - N/A   Overcast
2:17 AM 46.4 °F 41.9 °F 42.8 °F 87% 29.86 in 10.0 mi SSE 9.2 mph - N/A   Overcast
2:52 AM 46.9 °F - 43.0 °F 86% 29.87 in 10.0 mi SSE 6.9 mph - N/A   Overcast
3:52 AM 46.0 °F 43.1 °F 43.0 °F 89% 29.86 in 10.0 mi SSE 5.8 mph - N/A   Overcast
4:52 AM 46.9 °F - 42.1 °F 83% 29.89 in 10.0 mi SSE 6.9 mph - N/A   Overcast
5:52 AM 46.9 °F - 42.1 °F 83% 29.92 in 10.0 mi SSE 6.9 mph - N/A   Overcast
6:52 AM 46.9 °F - 42.1 °F 83% 29.91 in 10.0 mi SSE 8.1 mph - N/A   Overcast
7:52 AM 46.9 °F - 43.0 °F 86% 29.91 in 8.0 mi SSE 8.1 mph - N/A   Overcast
8:52 AM 48.0 °F - 43.0 °F 83% 29.92 in 9.0 mi SSE 5.8 mph - N/A   Mostly Cloudy
9:52 AM 50.0 °F - 44.1 °F 80% 29.93 in 10.0 mi SE 8.1 mph - N/A   Overcast
10:32 AM 51.8 °F - 46.4 °F 82% 29.92 in 10.0 mi SSE 10.4 mph - N/A   Scattered Clouds
10:42 AM 51.8 °F - 46.4 °F 82% 29.92 in 10.0 mi SSE 9.2 mph - N/A   Mostly Cloudy
10:52 AM 52.0 °F - 46.0 °F 80% 29.93 in 9.0 mi SE 6.9 mph - N/A   Mostly Cloudy
11:03 AM 51.8 °F - 46.4 °F 82% 29.91 in 9.0 mi SSE 10.4 mph - N/A   Scattered Clouds
11:32 AM 53.6 °F - 46.4 °F 77% 29.90 in 10.0 mi SSE 10.4 mph - N/A   Mostly Cloudy
11:52 AM 54.0 °F - 48.0 °F 80% 29.89 in 10.0 mi SE 9.2 mph - N/A   Mostly Cloudy
12:02 PM 55.4 °F - 48.2 °F 77% 29.87 in 9.0 mi SE 10.4 mph - N/A   Partly Cloudy
12:52 PM 55.9 °F - 48.9 °F 77% 29.85 in 10.0 mi SSE 13.8 mph - N/A   Partly Cloudy
1:52 PM 57.0 °F - 48.9 °F 74% 29.82 in 10.0 mi SSE 13.8 mph - N/A   Scattered Clouds
2:52 PM 57.0 °F - 48.9 °F 74% 29.80 in 10.0 mi SSE 15.0 mph - N/A   Clear
3:52 PM 55.9 °F - 48.0 °F 75% 29.81 in 10.0 mi SSE 12.7 mph - N/A   Scattered Clouds
4:52 PM 55.9 °F - 48.0 °F 75% 29.80 in 10.0 mi SE 15.0 mph - N/A   Mostly Cloudy
5:07 PM 55.4 °F - 48.2 °F 77% 29.79 in 10.0 mi SE 11.5 mph - N/A   Mostly Cloudy
5:50 PM 55.4 °F - 48.2 °F 77% 29.79 in 10.0 mi SE 10.4 mph - N/A   Overcast
5:52 PM 55.0 °F - 48.0 °F 77% 29.80 in 10.0 mi SSE 11.5 mph - N/A   Overcast
6:52 PM 55.0 °F - 48.0 °F 77% 29.80 in 10.0 mi SSE 10.4 mph - N/A   Partly Cloudy
7:52 PM 55.9 °F - 48.9 °F 77% 29.80 in 10.0 mi SSE 10.4 mph - N/A   Mostly Cloudy
8:52 PM 57.0 °F - 48.9 °F 74% 29.78 in 10.0 mi SSE 12.7 mph - N/A   Overcast
9:52 PM 57.0 °F - 48.9 °F 74% 29.77 in 10.0 mi South 15.0 mph - N/A   Scattered Clouds
10:52 PM 57.9 °F - 50.0 °F 75% 29.77 in 10.0 mi South 15.0 mph - N/A   Scattered Clouds
11:52 PM 59.0 °F - 51.1 °F 75% 29.76 in 10.0 mi South 17.3 mph 24.2 mph N/A   Mostly Cloudy